Powrót do katalogu

HULIANWANG DIGUI-109

AktywnyŁącznośćLEO
NORAD 66919·PAYLOAD·🇨🇳 China

Wystrzelony Dec 6, 2025 z Wenchang Space Launch Site

Loading…

Następne Przeloty (najbliższe 24 godziny)

TLE

ŚwieżeSource: Space-Track

Epoka: Sep 14, 2026, 19:57 UTC

1 66919U 25285E   26257.83189376 -.00000081  00000-0  92889-4 0  9990
2 66919  50.0067 184.4740 0000264 288.3513  71.7330 13.29319852 37993

Śledź HULIANWANG DIGUI-109 w czasie rzeczywistym z AllMySat

Download on the App Store